Tracking 19164 objects as of 21-May-2018
HD Live streaming from Space Station
objects crossing your sky now

COSMOS 1880

Track COSMOS 1880 now!
10-day predictions
COSMOS 1880 is classified as:


NORAD ID: 18339
Int'l Code: 1987-074F
Perigee: 1,399.2 km
Apogee: 1,416.0 km
Inclination: 82.6 °
Period: 113.8 minutes
Semi major axis: 7778 km
RCS: 1.0638 m2 (large)
Launch date: September 7, 1987
Source: Commonwealth of Independent States (former USSR) (CIS)
Launch site: PLESETSK MISSILE AND SPACE COMPLEX (PKMTR)
aabbcc
Your satellite tracking list
Your tracking list is empty




NASA's NSSDC Master Catalog

Two Line Element Set (TLE):
1 18339U 87074F   18140.68009885  .00000011  00000-0  98109-6 0  9993
2 18339  82.5622   0.1785 0010803  54.6031   5.1111 12.65460435418067
Source of the keplerian elements: AFSPC